Location: ??????
(38.0131°N, 23.7723°E)
Time: 02:05:57
(UTC+00:00)

H-2A R/B - Pass Details

Date: 17 October 2021
Orbit: 528 x 650 km, 98.3° (Epoch: 04 December)

Event Time Altitude Azimuth Distance (km) Brightness Sun altitude
Rises 17:19:52 0° 174° (S) 2,940 5.9 -19.5°
Reaches altitude 10° 17:22:07 10° 178° (S) 2,025 5.1 -20.0°
Maximum altitude 17:26:29 61° 258° (WSW) 715 3.1 -20.8°
Drops below altitude 10° 17:30:46 10° 340° (NNW) 1,981 5.4 -21.7°
Sets 17:32:57 0° 344° (NNW) 2,870 6.3 -22.1°
